{"data":{"norad_id":22988,"intl_designator":"1994-009A","name":"USA 99 (MILSTAR-1 1)","alt_names":[],"object_type":"PAYLOAD","status":"ACTIVE","operator":null,"country":"US","launch_date":"1994-02-07","launch_site_code":"AFETR","launch_vehicle":null,"mission":null,"orbit_class":"UNKNOWN","rcs_meters":null,"size_class":null,"mass_kg":null,"dimensions":null,"purposes":["comms"],"wikipedia_slug":null,"has_3d_model":false,"image_url":null,"decayed_at":null,"tle_current":{"epoch":"2026-05-24T14:20:56.076864Z","epoch_age_seconds":123994,"freshness":"FRESH","line1":"1 22988U 94009A   26144.59787126 -.00000254  00000+0  00000+0 0  9993","line2":"2 22988  17.5936  27.9526 0000954 267.9667 298.2395  0.98723893 32714","mean_motion":0.98723893,"eccentricity":9.54e-5,"inclination_deg":17.5936,"raan_deg":27.9526,"arg_perigee_deg":267.9667,"mean_anomaly_deg":298.2395,"bstar":0,"rev_number":3271,"period_min":1458.6134685754,"perigee_km":36222.120662154,"apogee_km":36230.249566814,"semimajor_km":42604.322114484,"source":"CELESTRAK","updated_at":"2026-05-25T13:38:13.805303Z"}}}